This is the latest recevied weather packets stored in our database for station/object PP5FMM-13. If no packets are shown the sender has not sent any weather packets the latest 10 day(s).
| Time | Temp. | Humidity | Pressure | Rain* | Wind** | Luminosity | Snow |
|---|---|---|---|---|---|---|---|
| 1777818632 | 24.44° C | 54% | 1024.1 hPa | - | - | - | - |
| 1777818332 | 25° C | 54% | 1024.2 hPa | - | - | - | - |
| 1777818032 | 25° C | 55% | 1024.3 hPa | - | - | - | - |
| 1777817732 | 25° C | 58% | 1024.4 hPa | - | - | - | - |
| 1777817432 | 25° C | 56% | 1024.3 hPa | - | - | - | - |
| 1777817132 | 25° C | 58% | 1024.5 hPa | - | - | - | - |
| 1777816832 | 25.56° C | 58% | 1024.5 hPa | - | - | - | - |
| 1777816532 | 25.56° C | 57% | 1024.5 hPa | - | - | - | - |
| 1777816232 | 25.56° C | 55% | 1024.4 hPa | - | - | - | - |
| 1777815932 | 25.56° C | 52% | 1024.5 hPa | - | - | - | - |
| 1777815632 | 26.11° C | 51% | 1024.5 hPa | - | - | - | - |
| 1777815332 | 26.11° C | 48% | 1024.5 hPa | - | - | - | - |
| 1777815032 | 26.67° C | 47% | 1024.7 hPa | - | - | - | - |
| 1777814732 | 26.67° C | 45% | 1024.7 hPa | - | - | - | - |
| 1777814432 | 27.22° C | 43% | 1024.7 hPa | - | - | - | - |
| 1777814132 | 27.22° C | 44% | 1024.8 hPa | - | - | - | - |
| 1777813832 | 27.22° C | 44% | 1024.7 hPa | - | - | - | - |
| 1777813532 | 27.22° C | 45% | 1024.6 hPa | - | - | - | - |
| 1777813232 | 26.67° C | 44% | 1024.7 hPa | - | - | - | - |
| 1777812932 | 26.67° C | 44% | 1024.7 hPa | - | - | - | - |
| 1777812632 | 26.11° C | 43% | 1024.7 hPa | - | - | - | - |
| 1777812332 | 25.56° C | 43% | 1024.6 hPa | - | - | - | - |
| 1777812032 | 26.11° C | 43% | 1024.5 hPa | - | - | - | - |
| 1777811732 | 26.11° C | 42% | 1024.5 hPa | - | - | - | - |
| 1777811431 | 26.67° C | 42% | 1024.6 hPa | - | - | - | - |
* Rain since midnight (hover to see other rain measurements)
** Current wind speed in m/s (hover to see current wind gust speed)